TimeEST,TemperatureF,Dew PointF,Humidity,Sea Level PressureIn,VisibilityMPH,Wind Direction,Wind SpeedMPH,Gust SpeedMPH,PrecipitationIn,Events,Conditions,WindDirDegrees,DateUTC
12:19 AM,31.6,31.6,100,29.97,7.0,NNE,3.5,-,N/A,,Clear,20,2013-02-06 05:19:00
12:40 AM,32.0,32.0,100,29.98,7.0,Calm,Calm,-,N/A,,Scattered Clouds,0,2013-02-06 05:40:00
1:02 AM,31.1,31.1,100,29.99,7.0,Calm,Calm,-,N/A,,Scattered Clouds,0,2013-02-06 06:02:00
1:23 AM,30.7,30.7,100,29.99,5.0,Calm,Calm,-,N/A,,Scattered Clouds,0,2013-02-06 06:23:00
1:44 AM,30.7,30.7,100,29.98,7.0,Calm,Calm,-,N/A,,Mostly Cloudy,0,2013-02-06 06:44:00
2:06 AM,29.3,29.3,100,29.99,5.0,Calm,Calm,-,N/A,,Scattered Clouds,0,2013-02-06 07:06:00
2:27 AM,29.5,29.5,100,29.99,5.0,Calm,Calm,-,N/A,,Scattered Clouds,0,2013-02-06 07:27:00
2:48 AM,30.0,30.0,100,29.99,5.0,Calm,Calm,-,N/A,,Scattered Clouds,0,2013-02-06 07:48:00
3:10 AM,29.1,29.1,100,29.99,5.0,Calm,Calm,-,N/A,,Mostly Cloudy,0,2013-02-06 08:10:00
3:31 AM,29.1,29.1,100,29.99,5.0,Calm,Calm,-,N/A,,Overcast,0,2013-02-06 08:31:00
3:52 AM,29.5,29.5,100,30.00,5.0,Calm,Calm,-,N/A,,Overcast,0,2013-02-06 08:52:00
4:14 AM,30.6,30.6,100,30.00,5.0,Calm,Calm,-,N/A,,Overcast,0,2013-02-06 09:14:00
4:35 AM,30.2,30.2,100,30.01,5.0,NE,4.6,-,N/A,,Mostly Cloudy,40,2013-02-06 09:35:00
4:56 AM,31.6,31.6,100,30.02,5.0,NNE,4.6,-,N/A,,Mostly Cloudy,30,2013-02-06 09:56:00
5:18 AM,31.1,31.1,100,30.03,5.0,Calm,Calm,-,N/A,,Overcast,0,2013-02-06 10:18:00
5:39 AM,32.0,32.0,100,30.05,5.0,Calm,Calm,-,N/A,,Mostly Cloudy,0,2013-02-06 10:39:00
5:50 AM,30.2,30.2,100,30.05,5.0,North,-9999.0,-,N/A,,Mostly Cloudy,0,2013-02-06 10:50:00
6:00 AM,31.6,31.6,100,30.06,5.0,Calm,Calm,-,N/A,,Mostly Cloudy,0,2013-02-06 11:00:00
6:22 AM,32.0,32.0,100,30.08,5.0,Calm,Calm,-,N/A,,Mostly Cloudy,0,2013-02-06 11:22:00
6:40 AM,31.8,31.8,100,30.09,5.0,Calm,Calm,-,N/A,,Mostly Cloudy,0,2013-02-06 11:40:00
6:50 AM,32.0,32.0,100,30.10,5.0,Calm,Calm,-,N/A,,Overcast,0,2013-02-06 11:50:00
7:50 AM,33.8,33.8,100,30.14,4.0,Calm,Calm,-,N/A,,Scattered Clouds,0,2013-02-06 12:50:00
9:50 AM,39.2,32.0,75,30.19,10.0,North,9.2,-,N/A,,Clear,350,2013-02-06 14:50:00
11:53 AM,44.6,30.2,57,30.21,10.0,North,11.5,20.7,N/A,,Partly Cloudy,350,2013-02-06 16:53:00
12:50 PM,41.0,28.4,61,30.22,10.0,NNW,12.7,23.0,N/A,,Mostly Cloudy,340,2013-02-06 17:50:00
1:53 PM,44.6,28.4,53,30.23,10.0,NW,17.3,23.0,N/A,,Partly Cloudy,320,2013-02-06 18:53:00
2:52 PM,44.6,26.6,49,30.23,10.0,North,10.4,-,N/A,,Partly Cloudy,350,2013-02-06 19:52:00
3:50 PM,44.6,26.6,49,30.23,10.0,NNW,12.7,17.3,N/A,,Clear,340,2013-02-06 20:50:00
4:46 PM,41.0,26.6,57,30.26,10.0,North,11.5,-,N/A,,Clear,350,2013-02-06 21:46:00
5:46 PM,39.2,26.6,61,30.29,10.0,North,5.8,-,N/A,,Clear,350,2013-02-06 22:46:00
6:50 PM,37.4,26.6,65,30.32,10.0,North,3.5,-,N/A,,Clear,350,2013-02-06 23:50:00
8:45 PM,32.0,24.8,75,30.36,10.0,Calm,Calm,-,N/A,,Clear,0,2013-02-07 01:45:00
10:02 PM,30.7,24.6,78,30.39,10.0,Calm,Calm,-,N/A,,Clear,0,2013-02-07 03:02:00
10:22 PM,29.5,24.8,83,30.39,10.0,Calm,Calm,-,N/A,,Clear,0,2013-02-07 03:22:00
10:42 PM,28.6,24.8,86,30.39,10.0,Calm,Calm,-,N/A,,Clear,0,2013-02-07 03:42:00
11:02 PM,27.9,24.4,87,30.39,10.0,Calm,Calm,-,N/A,,Clear,0,2013-02-07 04:02:00
11:22 PM,27.1,23.9,88,30.40,10.0,Calm,Calm,-,N/A,,Clear,0,2013-02-07 04:22:00
11:42 PM,28.8,24.4,84,30.39,10.0,Calm,Calm,-,N/A,,Clear,0,2013-02-07 04:42:00